This is the latest recevied weather packets stored in our database for station/object HB9DDE-10. If no packets are shown the sender has not sent any weather packets the latest 10 day(s).
| Time | Temp. | Humidity | Pressure | Rain* | Wind** | Luminosity | Snow |
|---|---|---|---|---|---|---|---|
| 1777808632 | 22.22° C | 49% | 1015.5 hPa | 0 mm | - | - | - |
| 1777808321 | 22.22° C | 51% | 1015.5 hPa | 0 mm | - | - | - |
| 1777808015 | 22.22° C | 49% | 1015.5 hPa | 0 mm | - | - | - |
| 1777807725 | 22.22° C | 49% | 1015.5 hPa | 0 mm | - | - | - |
| 1777807414 | 22.22° C | 49% | 1015.6 hPa | 0 mm | - | - | - |
| 1777807125 | 22.22° C | 48% | 1015.6 hPa | 0 mm | - | - | - |
| 1777806814 | 22.22° C | 50% | 1015.6 hPa | 0 mm | - | - | - |
| 1777806525 | 22.22° C | 49% | 1015.7 hPa | 0 mm | - | - | - |
| 1777806235 | 22.22° C | 49% | 1015.8 hPa | 0 mm | - | - | - |
| 1777805921 | 21.67° C | 49% | 1015.9 hPa | 0 mm | - | - | - |
| 1777805630 | 21.67° C | 48% | 1015.9 hPa | 0 mm | - | - | - |
| 1777805323 | 21.67° C | 50% | 1015.9 hPa | 0 mm | - | - | - |
| 1777805032 | 21.11° C | 54% | 1015.8 hPa | 0 mm | - | - | - |
| 1777804722 | 21.11° C | 55% | 1015.8 hPa | 0 mm | - | - | - |
| 1777804432 | 20.56° C | 54% | 1015.9 hPa | 0 mm | - | - | - |
| 1777804122 | 20.56° C | 53% | 1015.9 hPa | 0 mm | - | - | - |
| 1777803832 | 20.56° C | 53% | 1015.8 hPa | 0 mm | - | - | - |
| 1777803521 | 20° C | 54% | 1015.9 hPa | 0 mm | - | - | - |
| 1777803230 | 20° C | 55% | 1016 hPa | 0 mm | - | - | - |
| 1777802920 | 19.44° C | 56% | 1016.1 hPa | 0 mm | - | - | - |
| 1777802614 | 19.44° C | 53% | 1016.3 hPa | 0 mm | - | - | - |
| 1777802324 | 19.44° C | 54% | 1016.5 hPa | 0 mm | - | - | - |
| 1777802015 | 19.44° C | 53% | 1016.7 hPa | 0 mm | - | - | - |
| 1777801725 | 19.44° C | 53% | 1016.6 hPa | 0 mm | - | - | - |
| 1777801433 | 19.44° C | 55% | 1016.6 hPa | 0 mm | - | - | - |
* Rain latest hour (hover to see other rain measurements)
** Current wind speed in m/s (hover to see current wind gust speed)